GFSMA_sfc_30mbdewp_021.txt.gz
Dewpoint
57 55 55 53 50 48 43 44 45 44 42 40 39 40 39 39 39 41 49 49 49 48 48 49 48 46 44 44 43 43 44 44 47 47 47 49 50 52 53 54 55 58 59
56 54 51 48 47 46 47 44 42 42 40 39 38 39 36 38 35 34 43 48 50 49 48 46 44 43 41 40 40 40 40 41 42 45 45 47 47 47 48 50 52 54 55
53 51 48 48 46 45 44 42 43 42 41 40 38 36 36 36 34 34 34 43 50 48 45 42 39 40 38 38 38 37 37 37 40 42 42 43 44 45 45 46 47 50 52
50 49 48 44 43 44 44 43 42 41 41 40 36 33 37 33 35 31 32 33 47 46 44 41 37 37 36 36 36 36 35 39 40 39 41 42 41 41 42 43 43 45 47
46 47 46 43 42 43 43 42 41 42 40 37 33 31 31 35 31 33 31 31 42 44 42 45 43 34 32 34 33 33 35 35 35 38 41 38 39 38 39 41 42 42 43
42 45 44 44 43 42 41 39 39 37 38 36 34 32 32 32 32 31 29 29 31 33 38 32 29 31 31 31 30 31 31 31 34 37 36 36 36 36 36 38 39 41 42
43 42 42 42 41 41 40 40 36 35 35 37 32 31 30 31 28 29 30 29 28 30 29 30 28 26 29 28 26 26 27 31 31 31 31 31 32 33 33 34 37 38 40
41 42 41 41 40 39 38 37 36 34 37 35 30 32 28 28 29 29 27 27 24 26 27 26 25 27 27 24 22 20 23 30 24 24 26 28 29 30 31 32 35 36 38
41 36 33 31 33 37 37 37 37 36 34 34 34 30 28 27 26 26 23 23 22 22 23 24 24 22 23 23 24 25 26 29 28 28 27 27 27 28 29 30 33 34 36
26 28 31 30 31 32 31 36 38 37 35 34 34 33 30 29 23 21 21 21 21 20 21 23 23 23 24 25 25 30 32 32 28 25 24 24 25 25 26 29 30 33 34
26 28 29 28 30 34 34 35 38 37 37 36 35 33 29 25 24 21 20 21 21 21 21 23 23 24 24 22 22 21 28 27 26 22 22 23 24 24 25 27 31 31 32
28 28 27 30 32 34 36 38 37 37 37 37 36 33 27 25 23 22 21 21 20 21 21 21 22 23 23 21 24 25 30 30 28 24 24 23 24 25 26 27 28 30 31
26 25 28 29 30 34 38 37 37 38 37 36 35 31 30 27 26 24 22 20 20 21 20 22 22 23 22 23 24 26 25 27 26 23 24 24 25 24 24 25 27 28 29
26 28 27 28 29 32 38 38 38 38 37 37 34 33 30 28 27 25 23 22 20 20 21 21 23 22 22 23 23 23 23 24 25 26 24 22 21 22 22 24 27 27 29
25 27 28 28 29 29 34 37 37 36 37 36 34 33 29 28 29 28 26 24 23 20 20 21 20 21 21 21 22 22 22 23 24 25 24 24 23 24 25 25 27 29 31
26 28 27 29 29 28 29 37 37 36 33 31 32 29 29 30 28 28 25 25 24 22 20 20 19 19 21 20 20 21 22 21 21 23 25 26 26 25 25 27 31 31 32
27 27 27 27 28 29 30 30 30 30 30 31 32 30 28 29 27 26 26 23 20 18 16 17 19 20 19 19 20 21 21 20 21 22 25 26 26 28 31 31 31 32 32
28 27 26 27 29 29 27 27 28 30 31 26 27 28 27 27 25 25 21 17 17 17 18 17 17 18 18 19 18 19 19 20 22 23 23 25 26 28 32 34 35 35 34
28 27 27 28 29 26 25 26 27 28 27 28 27 27 27 25 21 19 16 15 16 16 17 17 16 17 17 18 17 19 19 20 21 21 21 22 27 28 31 33 35 36 34
27 27 27 28 29 27 28 26 27 26 25 25 26 26 24 18 15 15 14 14 15 17 17 17 16 15 16 18 19 17 20 24 22 22 23 26 25 26 28 33 35 34 34
27 27 27 29 29 29 28 26 24 24 22 22 22 20 18 18 18 16 15 16 18 18 18 17 16 16 17 17 18 22 20 19 17 19 20 21 20 23 27 31 34 36 35
27 28 28 27 27 30 26 24 23 20 20 21 21 20 17 18 20 21 21 20 19 17 17 18 18 16 17 19 23 20 17 15 13 17 19 17 19 18 21 25 34 35 33
25 27 28 27 27 29 27 24 19 18 19 23 21 18 18 20 19 17 18 17 16 17 17 17 15 14 13 15 17 17 17 18 17 18 19 17 18 18 21 22 26 29 33
26 27 26 27 29 29 28 24 18 17 21 23 21 20 19 18 18 17 17 16 16 17 15 16 14 13 14 17 18 19 19 19 20 21 20 18 19 20 24 26 26 28 33
27 26 27 26 29 28 28 22 17 20 23 23 22 21 21 16 20 18 17 16 16 17 16 16 15 18 20 22 21 23 23 22 19 19 20 20 21 24 23 26 26 26 30
26 27 27 25 26 26 26 23 18 21 21 22 23 20 19 17 18 18 18 16 15 15 17 16 16 18 20 21 23 22 22 22 22 20 20 22 21 23 22 24 24 28 30

GFSMA_sfc_30mbdewp_024.txt.gz
Dewpoint
55 54 51 49 48 45 44 43 42 40 40 39 39 37 37 37 35 39 46 50 50 49 49 50 48 46 45 44 44 43 43 42 44 45 46 45 46 46 46 47 48 50 52
53 51 48 47 46 46 44 42 41 41 40 39 37 35 37 35 34 34 37 42 50 50 49 47 45 44 42 42 41 40 40 41 43 42 42 43 43 43 44 45 45 46 48
52 48 47 45 44 45 43 43 42 42 41 38 34 33 36 35 35 32 33 40 51 50 48 43 41 40 39 39 38 38 39 42 39 40 43 42 41 41 41 42 43 44 45
49 48 44 43 45 44 42 42 42 40 40 36 33 31 33 35 33 30 29 39 47 47 46 41 40 38 38 37 36 36 38 37 36 37 41 40 39 39 39 39 40 41 42
49 46 44 44 43 42 41 40 39 38 37 35 34 32 33 33 32 30 29 30 40 43 42 39 37 35 34 33 33 34 34 34 33 35 38 37 37 36 36 36 37 38 40
46 44 42 42 42 40 39 38 34 35 35 36 34 31 31 32 30 30 29 27 30 31 31 30 30 33 32 30 29 27 28 29 34 31 32 32 33 33 33 34 34 35 37
43 42 42 41 41 39 39 37 36 34 34 35 32 31 31 31 29 28 27 25 25 26 25 27 28 28 28 27 24 24 24 26 28 27 26 28 29 30 31 31 32 33 35
41 41 41 40 39 38 37 37 36 35 36 34 31 32 28 29 27 26 26 24 22 23 23 25 24 24 26 25 27 29 26 23 25 26 27 27 28 28 28 29 30 31 33
39 36 33 31 31 32 31 35 37 35 34 35 33 30 27 26 26 27 22 22 21 22 23 25 23 23 24 24 27 29 33 30 27 25 26 26 26 26 26 27 27 29 31
30 31 30 30 32 33 33 35 38 37 35 34 34 32 30 28 23 22 22 22 22 21 21 24 23 24 25 23 24 27 29 29 26 24 23 24 25 26 25 26 26 28 30
30 30 29 31 33 34 36 38 37 37 37 36 35 33 29 26 25 22 20 21 22 22 22 22 23 24 24 24 22 23 30 31 28 25 24 24 24 25 25 25 26 27 29
29 28 30 29 31 34 37 37 37 37 36 36 36 33 28 25 24 22 21 21 20 21 22 21 22 23 24 23 26 29 28 27 26 25 25 25 25 25 25 25 25 26 27
27 28 29 29 30 36 38 37 37 37 37 36 35 32 31 29 27 25 23 21 21 21 21 22 22 23 24 25 24 26 25 25 24 23 24 24 24 22 22 23 24 25 26
28 28 28 29 29 30 36 38 37 37 36 36 35 34 32 29 28 27 24 22 21 21 22 21 23 23 23 22 23 24 23 22 22 23 23 21 21 22 23 25 26 27 28
28 28 28 28 29 28 29 34 37 36 36 36 34 33 32 29 29 28 27 25 23 21 20 21 19 21 21 21 21 21 21 22 21 21 22 24 24 24 23 23 26 26 27
28 27 27 28 27 28 30 32 37 36 34 31 31 32 30 30 29 29 26 26 24 22 19 20 18 19 21 19 19 21 21 19 21 22 23 24 24 25 24 25 26 29 29
27 27 27 27 27 29 29 28 28 29 30 31 31 30 30 30 28 26 25 21 19 17 15 17 18 19 18 19 19 20 20 20 21 21 21 22 23 24 27 28 30 31 31
28 27 27 26 27 30 28 26 27 28 30 28 28 28 27 27 26 24 21 17 16 16 17 15 16 16 17 17 18 19 19 20 20 22 21 20 23 24 27 28 29 31 34
28 28 27 26 27 29 27 27 27 27 28 28 27 27 27 26 23 20 17 15 16 16 17 17 16 17 17 17 18 19 20 20 23 19 17 16 22 25 23 23 27 31 34
29 27 27 27 28 29 29 28 27 26 26 25 25 25 22 19 16 16 15 15 15 16 17 17 17 17 17 17 19 18 20 21 19 18 17 17 19 20 20 21 24 29 35
28 27 28 28 29 29 30 29 26 24 23 22 22 20 19 19 21 17 16 18 18 18 17 16 17 17 17 17 18 20 21 18 16 17 17 21 18 20 22 21 24 27 33
28 28 28 29 29 29 29 29 25 23 21 21 21 20 18 19 21 23 22 21 19 16 15 18 17 15 16 14 16 16 17 16 16 17 19 19 20 20 20 22 24 26 27
28 28 27 28 28 29 29 28 25 21 19 21 22 19 18 20 20 17 18 18 16 16 15 17 15 15 13 13 15 17 18 19 19 20 20 19 20 19 21 21 24 25 28
29 27 27 28 28 29 30 28 23 19 19 23 22 20 20 19 18 17 17 16 16 15 15 16 17 16 16 19 21 22 24 24 23 22 21 19 19 20 22 24 25 28 29
28 27 27 27 28 29 30 28 20 18 21 22 23 22 21 20 19 20 17 17 17 15 15 17 17 18 18 19 22 23 21 21 18 19 21 22 20 21 21 23 25 29 30
27 28 28 28 28 28 30 27 21 20 20 22 23 22 20 18 21 19 19 19 17 15 15 17 17 17 18 19 20 21 22 20 20 18 21 23 22 22 20 23 23 27 28

GFSMA_sfc_30mbdewp_027.txt.gz
Dewpoint
54 52 49 48 45 45 43 42 41 40 39 38 36 36 36 35 34 35 38 48 49 51 48 51 49 47 46 45 43 43 43 45 45 44 45 45 44 44 44 44 44 45 46
51 48 47 46 46 43 43 42 41 41 39 36 34 36 34 35 32 33 36 39 49 50 49 49 46 44 43 42 41 40 43 43 41 42 44 43 41 42 41 41 42 43 43
50 47 45 44 44 43 42 42 41 41 38 35 33 32 35 33 30 31 38 40 50 51 48 44 44 40 40 40 39 39 41 39 38 39 42 41 41 40 40 39 39 40 41
48 45 44 44 43 42 41 40 39 38 37 35 33 32 34 32 31 29 32 43 47 45 44 43 41 39 39 37 36 36 37 37 36 36 40 38 38 37 37 37 37 37 38
46 43 43 43 41 40 39 38 36 36 34 35 34 33 32 31 29 28 29 30 33 40 37 37 38 36 33 31 30 30 31 32 32 36 33 33 33 33 34 35 35 35 36
45 43 42 42 41 39 37 36 34 35 36 36 33 31 31 30 29 28 24 25 25 26 28 29 28 28 32 29 28 27 27 28 29 32 30 29 30 30 32 33 33 33 33
43 42 42 41 40 38 37 37 36 33 35 34 31 31 32 30 28 27 24 24 23 23 24 27 27 26 25 30 31 29 27 26 26 27 27 29 29 29 29 30 30 31 31
42 42 41 40 38 36 34 36 36 35 36 34 31 31 27 28 28 26 24 22 22 22 23 23 22 23 24 24 28 25 28 26 26 27 26 26 28 28 28 27 28 29 30
40 36 33 32 31 31 31 34 37 35 33 34 33 30 28 26 27 27 23 22 22 22 23 24 22 24 24 23 25 28 26 23 22 22 23 24 26 26 27 27 27 28 29
31 31 31 33 34 34 33 35 38 37 35 33 34 32 30 28 26 24 23 22 23 21 22 23 23 24 24 24 25 26 30 31 27 24 23 24 25 26 26 27 27 27 28
31 31 32 32 33 35 36 37 37 36 36 35 34 33 30 27 25 23 21 21 22 23 23 23 22 24 24 24 24 27 31 30 28 27 27 27 27 26 27 26 26 26 27
30 30 29 31 33 36 37 36 37 36 36 35 35 34 30 26 25 24 22 22 21 21 22 22 22 23 24 25 26 29 28 27 27 26 26 26 27 27 26 25 24 25 26
28 29 29 29 30 36 38 37 37 36 36 35 34 33 32 30 28 26 24 23 21 22 21 22 23 24 24 23 24 25 26 24 24 24 24 24 24 22 22 23 25 26 27
29 29 29 29 29 30 35 37 37 37 36 35 35 34 33 31 29 28 25 23 22 22 22 22 24 22 21 22 22 21 22 23 22 21 22 22 22 24 24 25 25 26 26
29 29 28 29 29 28 29 31 35 36 36 35 35 32 32 32 30 28 27 25 25 22 21 21 20 21 20 20 19 20 21 21 19 19 21 22 23 24 24 25 25 25 27
30 29 28 28 27 28 30 31 35 37 33 32 31 31 32 30 30 29 27 26 25 26 26 22 19 19 19 18 18 19 20 20 21 23 20 21 22 24 24 24 26 26 26
29 28 28 27 26 28 29 30 29 28 29 30 31 31 30 30 29 28 26 24 21 19 17 16 18 18 17 17 17 19 20 20 21 20 22 22 21 21 22 25 27 27 27
29 28 28 27 27 28 29 27 26 27 27 28 28 29 28 28 27 26 23 20 17 16 15 14 16 16 17 17 17 18 19 19 20 22 20 18 18 18 18 27 25 24 24
29 28 28 27 27 28 29 28 27 28 28 28 28 27 27 27 26 23 20 17 16 16 17 17 17 17 17 17 17 19 19 20 22 19 16 17 17 19 20 22 21 22 22
29 28 27 27 28 28 29 29 28 27 27 27 27 27 27 24 21 17 17 15 15 15 17 17 17 16 17 18 18 18 15 17 17 17 18 19 19 20 21 21 21 22 23
29 28 28 29 30 30 29 29 28 27 26 25 24 21 20 19 19 17 16 15 17 18 17 15 15 16 16 15 14 14 15 16 18 18 19 19 20 21 22 22 22 22 24
29 28 28 29 29 30 29 30 29 27 25 23 22 21 20 20 22 23 22 22 19 16 14 15 15 15 14 15 14 15 17 18 16 19 19 21 21 20 21 22 22 24 25
30 30 31 28 28 29 29 30 30 26 23 22 21 21 19 18 21 23 23 20 18 18 17 15 14 14 16 15 16 18 19 20 20 21 22 20 20 19 20 21 23 26 27
34 33 29 28 28 28 29 31 30 24 22 21 22 22 20 19 20 18 17 16 16 17 16 15 16 17 17 18 19 20 23 23 22 21 21 19 20 20 21 22 24 29 29
31 29 28 27 28 28 29 31 28 22 20 20 23 22 21 21 21 22 19 17 17 18 16 17 18 19 19 19 18 19 19 19 17 17 19 20 20 20 22 23 24 26 28
29 29 28 29 29 27 29 31 28 22 21 21 23 23 25 22 21 23 21 18 19 19 16 15 17 18 18 18 18 18 20 19 18 16 20 21 19 22 21 21 23 22 24

GFSMA_sfc_30mbdewp_030.txt.gz
Dewpoint
53 50 47 46 45 44 42 41 40 38 36 35 36 34 35 32 33 35 35 43 51 51 48 51 49 47 46 44 43 44 46 43 43 45 45 43 43 43 42 42 41 41 42
50 47 46 45 43 42 42 41 40 38 36 34 34 35 33 30 32 36 38 42 53 53 50 50 47 45 44 42 41 42 42 40 40 44 43 43 42 40 40 39 39 40 40
48 46 45 44 43 42 42 41 40 37 35 34 33 34 33 30 30 35 43 48 47 48 46 46 44 42 42 41 39 39 40 39 38 37 43 40 38 38 37 38 38 38 38
47 44 44 43 43 42 40 39 37 36 35 34 33 33 31 30 29 31 35 44 43 39 41 43 41 40 36 34 33 34 35 35 35 34 38 35 34 34 34 36 35 36 36
45 44 43 42 41 40 38 36 36 34 33 35 33 32 31 29 27 26 27 31 34 31 30 37 37 38 36 33 32 31 30 31 31 32 34 32 31 32 31 31 32 33 34
44 43 42 41 40 38 36 34 34 36 36 35 32 32 31 30 28 25 24 24 24 25 27 28 27 31 31 31 31 30 29 29 29 29 31 30 31 30 30 30 30 30 31
43 42 42 41 39 37 36 36 35 35 34 34 32 32 31 30 27 25 24 23 22 23 25 24 26 25 25 30 29 27 28 27 27 28 28 29 28 27 28 29 29 29 30
42 42 40 39 37 35 35 36 35 35 35 34 31 30 28 28 28 25 23 22 22 23 23 22 23 24 23 23 29 26 25 24 23 23 24 24 25 25 26 27 28 29 28
42 38 35 32 31 32 32 35 36 34 33 33 33 30 27 25 27 28 23 23 22 22 23 23 23 25 24 24 25 27 30 29 24 24 24 24 24 25 26 27 27 28 28
32 32 32 33 33 34 34 37 37 36 35 33 34 32 30 29 28 27 25 23 24 22 22 23 23 24 24 25 26 28 31 33 31 27 27 26 26 26 27 27 28 28 28
31 32 33 33 34 36 37 36 36 35 36 35 34 33 31 28 26 25 23 22 23 23 23 23 23 24 25 26 26 30 30 30 29 29 29 29 28 27 27 27 27 27 26
31 31 32 31 34 37 36 36 36 36 35 35 35 34 31 28 26 24 23 23 22 23 22 23 23 24 25 24 24 27 27 28 27 26 27 27 27 27 26 26 25 24 25
30 29 30 30 34 37 37 36 36 35 35 35 34 33 32 30 29 27 25 24 23 22 22 23 24 24 22 22 24 23 22 23 22 23 23 23 23 24 24 24 25 26 26
29 30 30 30 30 34 35 37 36 36 36 35 34 34 33 33 31 28 26 24 23 23 23 22 24 22 21 21 20 20 20 22 21 20 21 22 22 24 24 25 25 25 25
30 31 30 31 30 28 30 33 34 36 37 35 34 34 33 32 32 30 28 25 25 26 23 23 22 23 20 19 19 20 20 20 21 21 22 23 22 22 22 23 25 25 25
30 31 31 30 29 28 29 31 32 35 36 35 34 31 31 31 30 29 28 28 26 25 24 26 22 20 18 18 18 19 19 21 21 22 22 22 23 22 22 22 22 23 24
32 32 30 29 28 28 30 30 33 35 32 29 30 31 30 30 30 29 28 26 25 24 23 19 19 18 17 17 18 18 19 20 21 21 21 21 21 20 20 20 21 21 26
31 29 30 28 28 28 30 30 28 27 27 27 28 29 30 30 29 28 26 24 21 19 16 14 16 16 17 17 17 18 18 18 20 20 21 19 19 20 20 21 21 22 24
30 29 29 28 27 28 29 29 28 27 27 28 28 28 27 28 27 26 24 21 19 17 16 17 16 18 17 17 17 18 19 18 19 18 17 19 20 21 22 22 23 22 22
30 29 29 28 28 29 29 29 29 28 28 28 28 28 27 27 26 24 21 19 17 16 16 16 17 16 15 16 18 17 14 15 16 17 19 20 21 22 22 23 24 24 23
30 29 29 29 30 32 30 29 29 29 28 27 27 27 27 26 25 20 17 16 16 15 17 17 14 14 14 14 15 14 15 17 18 19 19 19 20 22 22 23 23 23 25
30 29 30 30 33 32 29 30 31 29 28 26 25 24 21 24 24 25 25 20 17 18 16 14 14 14 12 14 16 16 17 17 15 20 20 20 20 21 21 21 22 24 26
32 34 35 35 34 30 30 30 30 30 28 26 24 23 22 19 21 21 24 25 24 22 19 17 15 14 14 16 16 17 18 19 19 20 21 19 19 19 20 20 22 24 29
37 37 36 33 30 28 28 29 29 31 27 26 24 22 21 20 20 20 21 21 19 17 17 17 16 14 17 18 19 18 19 20 19 19 19 17 18 19 21 21 23 25 26
37 36 33 33 29 28 29 29 31 30 26 24 22 22 22 21 21 24 20 18 17 17 18 20 18 19 20 20 20 19 16 17 15 15 17 18 19 19 20 22 24 25 25
33 33 29 29 28 28 28 29 31 29 25 23 22 23 25 22 23 24 24 21 18 18 19 17 15 17 20 19 20 18 16 17 15 14 19 18 17 20 19 22 23 23 23

GFSMA_sfc_30mbdewp_033.txt.gz
Dewpoint
56 50 49 47 45 44 44 42 41 39 39 38 37 36 35 36 38 36 36 52 53 52 48 53 50 48 46 44 45 46 42 42 44 44 44 44 43 41 41 40 40 40 40
52 49 48 46 44 44 43 42 41 38 37 37 37 36 34 34 37 39 38 46 51 52 50 51 48 47 44 42 40 42 40 40 39 38 44 42 39 38 38 38 38 38 38
51 49 46 45 44 45 44 42 40 39 37 35 36 35 32 33 35 40 43 46 45 48 48 47 44 43 44 41 40 39 39 38 37 36 38 39 36 35 35 35 35 35 36
50 49 46 45 45 44 42 40 39 37 35 35 35 33 32 31 33 38 43 44 42 41 44 45 43 39 36 35 35 35 34 33 33 33 35 37 34 33 33 32 32 32 34
48 47 45 45 44 41 40 38 37 35 32 34 33 33 32 29 29 29 37 39 36 35 34 37 37 35 35 34 33 31 31 31 31 32 32 33 32 33 32 31 30 30 30
47 46 44 44 41 39 38 37 36 37 36 36 31 33 32 30 28 28 27 26 28 30 29 29 27 30 33 31 29 29 28 29 30 31 31 31 32 32 30 29 30 30 31
46 44 43 42 41 39 38 39 36 36 35 36 33 32 31 31 29 26 26 25 25 26 28 27 25 24 24 30 29 28 26 26 26 26 26 26 27 28 27 28 29 29 30
44 44 43 41 40 38 38 38 37 36 35 36 30 30 26 29 29 26 25 24 27 24 24 25 25 25 24 22 28 29 27 26 26 25 26 26 26 27 27 27 28 29 29
44 43 42 39 36 34 33 37 37 35 33 35 36 28 23 20 28 30 28 25 27 25 25 25 25 26 26 25 25 25 29 30 30 27 26 27 27 27 27 28 28 29 29
42 39 36 35 35 35 35 37 38 39 37 32 35 33 34 32 25 23 28 28 27 26 27 26 25 25 26 25 27 30 32 32 31 30 29 28 29 28 28 27 27 28 28
37 35 35 36 35 35 38 38 40 38 37 34 32 33 34 31 31 27 22 23 25 26 26 27 26 25 26 26 25 28 29 29 29 29 28 28 28 28 27 27 27 27 28
35 35 34 35 36 37 38 39 39 39 36 35 34 34 31 28 25 26 24 24 25 25 26 27 27 25 26 25 22 25 24 24 24 23 24 24 25 25 26 26 26 26 26
33 34 34 34 37 39 39 39 38 37 37 35 35 33 33 31 30 29 28 25 25 24 26 26 26 27 24 24 23 22 20 21 21 22 21 22 24 25 25 25 26 26 27
32 33 33 35 36 38 38 38 38 37 38 37 36 35 33 33 33 32 29 27 25 23 24 26 27 27 24 23 22 21 18 18 19 20 22 23 23 24 24 24 24 25 25
33 34 35 34 34 34 37 37 35 36 38 39 37 37 35 34 33 33 32 30 27 23 20 20 24 26 25 23 18 19 18 15 18 21 21 22 23 23 23 23 24 24 24
32 34 34 33 32 32 32 34 33 35 36 37 36 35 34 32 32 32 31 30 29 27 22 20 22 24 23 17 16 19 15 16 16 19 21 22 22 22 22 22 22 22 22
33 33 34 32 31 31 32 33 33 33 35 36 35 32 31 32 31 31 31 30 29 28 24 20 21 19 19 17 17 15 13 13 14 16 18 20 21 22 21 21 21 21 22
33 33 33 31 31 30 32 32 33 31 34 33 30 30 30 30 32 32 31 30 28 26 24 17 16 16 16 17 16 14 12 13 15 14 17 20 20 21 22 23 23 23 23
33 33 31 30 29 30 31 32 32 31 30 29 29 30 29 31 30 29 29 27 25 23 21 18 15 15 17 16 13 11 11 14 12 13 15 17 19 21 22 23 24 24 25
33 31 31 30 31 30 31 34 37 31 31 30 30 31 30 30 28 28 27 26 23 20 18 16 15 15 15 14 13 9 10 11 12 13 16 18 19 19 20 22 24 25 25
32 31 32 32 32 33 37 39 34 31 31 30 31 31 30 30 29 28 25 23 20 18 17 16 15 14 13 12 8 11 12 12 13 14 16 16 16 16 17 19 20 21 24
32 31 31 33 35 38 39 35 32 31 31 31 30 30 29 29 30 29 25 21 19 19 18 17 15 14 14 12 10 13 14 13 11 13 14 14 15 15 15 17 18 22 24
34 37 38 37 37 39 35 31 30 30 31 30 30 29 28 24 24 23 25 28 25 21 21 19 17 15 16 11 13 14 13 13 13 13 14 13 14 14 15 16 20 22 24
39 38 39 39 37 34 35 35 29 30 30 30 30 29 28 26 24 22 21 22 22 23 22 20 18 17 15 13 15 17 17 16 14 13 12 12 14 16 17 19 21 23 25
39 38 37 36 35 37 33 30 29 30 30 29 29 28 27 26 25 24 21 21 20 19 19 20 20 22 19 21 21 19 17 14 14 12 12 14 14 15 17 19 21 22 25
37 36 35 35 34 30 29 29 30 31 30 29 29 27 26 25 24 25 24 24 21 18 18 17 18 17 19 18 20 21 16 15 14 13 11 14 15 15 15 16 19 22 24

GFSMA_sfc_30mbdewp_039.txt.gz
Dewpoint
55 52 51 51 49 50 49 47 47 45 43 42 41 37 32 31 32 30 39 46 50 52 52 53 52 49 47 49 45 42 42 41 40 42 43 42 39 39 38 38 37 36 37
56 52 52 50 50 49 48 47 46 42 40 39 38 33 31 29 33 34 32 43 50 53 51 53 52 49 46 45 42 42 42 40 39 38 37 39 39 39 37 37 36 35 34
56 53 52 51 50 49 48 47 45 41 39 35 33 31 29 31 31 32 33 34 46 49 49 49 51 47 46 43 41 39 38 37 36 36 36 36 37 38 36 36 36 35 33
56 55 52 51 50 50 48 46 41 39 36 33 32 30 30 30 31 31 34 35 33 40 47 45 43 41 40 39 38 37 35 34 34 35 36 37 38 37 37 37 38 36 33
56 55 52 51 50 48 46 44 41 37 35 32 31 33 33 31 31 26 33 35 35 33 40 43 41 39 37 34 31 30 30 31 32 34 34 33 33 32 33 33 33 33 32
55 54 52 52 51 47 46 42 39 37 32 34 31 30 35 33 30 31 31 29 30 33 32 34 37 35 33 30 28 27 28 30 31 31 30 30 31 31 31 31 32 32 31
54 54 52 52 49 46 44 42 41 37 35 37 37 37 36 35 33 31 31 28 27 28 28 28 28 26 31 30 27 29 29 28 28 28 29 30 31 31 32 32 31 31 32
54 54 52 50 48 45 44 42 38 35 38 38 38 37 35 33 33 34 31 29 30 30 26 28 27 28 28 26 31 29 26 26 27 31 31 32 32 32 32 32 31 30 30
53 51 50 49 47 45 44 43 39 39 39 39 39 36 31 27 29 32 33 32 29 30 30 28 27 28 28 28 28 28 31 33 32 32 31 32 33 32 32 31 30 30 29
53 50 49 49 47 45 42 41 38 40 42 39 38 37 34 32 27 23 30 32 32 32 31 30 28 27 28 28 28 29 34 32 30 29 30 30 29 28 27 27 27 28 28
51 50 49 49 47 43 41 40 38 43 40 40 37 34 34 33 32 30 28 26 29 26 25 27 28 28 28 27 27 32 31 28 28 28 28 27 26 25 25 26 27 28 28
51 50 48 48 46 43 41 39 42 42 42 40 35 32 31 28 28 28 26 24 23 23 24 26 27 27 26 26 26 30 27 26 26 26 25 25 25 25 25 26 27 27 27
51 50 47 45 44 42 39 41 43 43 42 37 36 31 31 31 30 26 24 23 24 24 23 25 26 25 24 25 25 27 28 27 27 25 23 23 24 23 24 24 25 26 26
50 48 45 43 42 42 40 43 42 42 38 38 35 35 34 32 29 27 26 25 23 22 22 22 23 24 24 23 26 26 24 26 27 25 23 23 21 23 24 25 25 25 25
46 46 44 42 42 41 42 42 42 38 37 38 37 38 36 31 29 29 28 26 25 23 22 21 20 22 21 22 23 24 23 22 24 24 23 20 20 20 23 23 24 25 25
47 45 44 42 41 42 40 40 36 36 37 36 37 35 34 33 30 28 26 25 24 24 23 21 20 22 21 19 22 22 22 23 21 24 24 22 18 20 21 22 23 24 24
47 45 43 42 41 42 41 38 35 33 34 35 35 37 36 33 30 29 28 28 26 24 23 22 22 22 20 20 20 22 21 20 19 18 21 21 20 20 19 21 22 23 24
49 48 43 41 41 40 37 34 33 33 32 36 37 40 38 33 30 31 30 28 27 26 25 24 23 21 21 20 21 20 19 17 16 14 18 19 18 20 19 20 21 22 23
49 46 42 42 39 36 34 33 33 37 39 40 40 39 34 33 32 31 30 29 28 25 25 25 23 22 20 20 19 18 17 16 15 13 16 20 21 21 20 21 22 23 23
48 46 43 39 36 33 33 34 40 40 40 39 39 36 34 33 31 31 30 30 28 27 27 25 23 21 19 19 17 15 15 15 11 8 12 14 16 16 20 22 24 24 24
47 41 38 36 35 36 37 38 38 39 38 39 40 39 36 34 33 32 30 31 29 27 27 26 22 20 19 18 15 14 13 14 12 13 14 13 13 14 15 16 17 23 25
38 37 36 37 37 36 38 40 39 36 38 38 39 37 34 33 33 31 31 31 32 31 28 26 23 21 20 19 17 16 15 13 10 13 12 14 14 13 14 14 16 16 21
35 36 36 37 37 38 38 39 37 37 38 37 37 37 34 28 26 26 27 31 31 31 30 28 27 25 22 21 19 17 15 13 11 13 15 14 14 13 14 12 18 22 22
37 37 37 37 37 37 38 38 38 37 37 36 33 29 27 27 27 27 27 28 29 30 31 27 24 25 26 24 20 18 17 13 15 16 15 13 13 14 14 16 17 20 22
37 37 38 38 38 39 38 38 37 34 30 29 27 26 26 26 27 27 28 29 29 29 28 28 28 27 23 20 19 19 17 14 18 14 15 12 12 14 15 16 19 23 26
38 37 38 38 38 36 35 36 33 31 29 29 28 28 28 29 28 28 29 29 29 29 28 28 28 27 25 24 24 20 17 17 17 17 15 14 12 12 13 15 17 19 21

GFSMA_sfc_30mbdewp_042.txt.gz
Dewpoint
58 56 55 54 53 53 52 51 49 48 45 44 41 36 34 35 35 40 45 46 49 52 54 53 52 50 49 48 44 43 42 42 41 41 41 41 40 40 38 38 38 37 36
57 56 56 54 54 52 52 50 49 46 45 43 38 34 33 34 35 36 44 46 49 52 50 53 53 50 49 49 44 42 43 39 39 38 38 39 39 39 39 37 37 37 36
57 57 54 53 53 53 52 50 47 44 41 38 35 33 35 33 35 34 38 46 51 51 52 54 53 50 47 44 44 42 39 38 36 36 37 37 39 40 40 39 39 40 36
57 57 56 54 53 52 50 49 46 44 41 37 35 35 33 33 32 33 37 38 46 48 49 48 47 45 43 41 39 38 36 35 35 36 37 37 36 35 36 36 36 36 36
57 57 56 54 53 52 51 49 45 43 39 36 36 35 36 35 33 30 35 36 36 41 46 46 44 43 41 38 36 31 31 32 33 34 34 33 33 33 33 33 34 33 33
58 58 57 54 52 52 49 47 43 40 39 39 35 33 38 37 34 33 33 33 34 35 40 43 43 41 39 34 31 29 29 30 32 32 31 31 32 32 33 34 34 33 33
57 57 57 54 53 52 49 48 44 39 35 40 39 40 39 38 36 34 34 33 31 31 30 31 33 36 37 34 31 29 30 29 28 29 30 32 33 33 33 33 33 32 32
57 56 56 55 53 51 49 46 44 41 41 42 40 40 39 37 37 37 36 33 31 32 32 30 30 30 32 33 30 32 31 27 27 30 32 32 33 34 33 33 33 32 31
57 55 56 54 53 52 49 47 45 42 40 42 41 39 36 33 34 37 36 34 34 33 32 32 31 29 30 29 34 33 30 31 32 31 31 32 33 33 31 30 29 29 29
57 55 54 53 52 51 48 47 46 43 43 43 43 41 40 36 32 29 36 35 36 34 34 33 32 32 31 31 31 34 35 33 31 30 31 32 31 29 28 28 28 28 29
56 56 52 51 52 50 49 47 43 43 45 42 41 41 39 37 37 34 31 32 35 34 35 37 32 32 31 30 31 36 36 32 30 29 30 29 28 28 28 27 27 28 28
54 53 51 52 53 52 48 45 44 46 43 43 40 37 37 33 33 34 33 32 31 31 31 32 33 30 30 31 30 36 34 30 29 29 28 27 26 27 26 26 26 27 27
53 53 53 52 52 49 46 42 45 45 45 42 38 39 34 34 34 32 29 27 27 28 29 30 31 30 30 29 34 34 32 30 30 30 27 26 26 25 24 24 26 27 27
55 55 53 50 47 45 44 44 47 45 43 41 41 38 35 37 36 31 29 29 28 28 27 27 30 32 30 29 33 33 33 31 30 30 26 25 25 23 21 22 24 25 25
55 52 49 47 45 45 44 45 43 43 41 41 39 36 38 38 35 33 32 31 29 26 27 27 27 26 27 28 30 31 29 27 28 27 26 25 25 22 21 21 22 22 23
49 49 48 46 45 44 44 43 43 42 38 38 36 39 38 38 37 35 32 30 29 28 27 28 26 26 26 23 26 25 25 25 24 25 26 26 28 23 20 21 20 20 23
50 48 48 46 44 44 43 42 41 39 37 37 40 40 40 42 40 35 33 31 30 29 26 26 27 26 27 26 24 26 26 25 24 24 23 25 26 25 22 22 21 22 23
50 48 47 45 43 44 43 42 39 32 37 38 39 41 41 41 39 37 34 31 31 30 29 27 27 27 27 26 25 24 23 20 20 20 20 20 25 27 25 24 23 23 24
50 49 47 44 42 43 42 38 35 39 40 41 41 40 40 39 37 35 34 33 32 31 30 29 28 28 27 26 23 23 23 22 22 19 20 22 24 24 24 25 25 26 26
50 47 44 43 42 39 36 37 40 40 39 39 41 40 40 39 37 35 34 33 32 32 31 30 29 28 27 26 24 21 20 20 19 17 13 15 16 19 24 27 27 27 27
49 47 43 39 37 37 39 40 39 38 38 39 40 39 40 39 38 37 35 33 32 32 31 31 29 28 28 25 21 21 19 18 18 18 15 16 18 18 17 17 20 23 23
41 39 37 37 36 38 38 38 39 38 38 38 37 38 39 39 38 36 34 33 33 31 30 30 30 29 28 26 24 22 19 17 16 18 14 16 17 16 18 18 18 22 20
38 38 37 37 37 37 38 38 38 37 37 38 38 37 37 37 36 32 30 29 30 32 32 31 30 29 29 29 28 24 21 19 18 17 16 15 17 17 19 15 18 19 22
37 38 38 38 37 37 37 38 37 38 38 37 37 37 35 31 29 30 31 29 29 30 30 32 31 31 31 30 31 27 24 21 19 17 17 15 18 18 18 18 19 19 23
37 37 36 37 38 38 38 38 38 37 35 32 31 30 31 31 31 32 31 31 32 31 30 29 30 32 31 29 28 26 21 17 16 16 18 17 17 17 17 17 18 19 22
38 38 38 39 38 37 37 36 34 32 31 30 30 29 28 29 29 28 24 23 23 26 29 32 33 31 32 27 25 23 22 19 18 17 18 17 18 15 13 15 19 19 21

GFSMA_sfc_30mbdewp_048.txt.gz
Dewpoint
53 54 53 52 50 49 48 50 48 45 41 37 34 35 38 45 48 51 53 55 56 55 53 53 53 53 51 48 48 45 44 43 41 40 41 40 41 42 41 40 39 40 39
54 53 51 51 50 50 48 50 47 44 42 35 33 34 37 40 41 41 46 49 52 54 54 53 53 53 52 48 46 45 43 41 40 39 39 40 42 40 39 39 39 39 38
55 54 53 52 52 53 51 49 48 46 42 36 33 33 35 35 40 41 43 48 50 51 51 55 54 52 53 48 45 45 41 40 38 38 39 41 38 37 36 36 36 37 36
56 55 55 54 54 53 52 50 47 43 41 36 33 33 34 33 32 39 44 47 48 50 55 56 55 52 52 49 46 46 41 38 37 37 38 37 36 35 35 36 36 36 35
57 57 56 55 54 52 51 49 45 43 41 38 34 34 34 34 32 36 43 45 46 48 52 54 53 52 51 48 46 43 41 37 35 36 36 34 34 35 36 36 35 34 34
56 57 57 56 54 50 49 48 46 45 40 37 35 35 35 36 34 35 41 43 46 46 48 48 48 47 47 46 45 43 39 35 34 35 33 32 35 35 34 34 33 33 33
56 57 57 56 53 51 50 49 46 41 39 39 38 39 39 40 36 34 35 36 40 45 45 45 45 44 46 47 44 41 36 33 34 33 32 34 33 32 33 33 33 32 32
55 57 57 57 54 52 51 49 45 40 37 40 36 40 38 39 38 36 35 34 35 42 43 43 43 42 42 43 40 37 34 35 35 33 33 33 32 33 33 33 32 32 32
53 55 58 57 54 53 51 50 45 42 39 41 41 38 38 36 37 37 36 36 34 34 34 37 40 38 38 38 38 39 37 37 35 34 35 34 33 34 33 32 32 32 31
56 56 57 57 55 54 52 50 47 43 41 40 42 42 40 35 32 31 35 37 36 33 33 33 33 33 35 35 35 37 38 37 36 34 36 34 35 34 34 32 31 31 31
57 58 58 57 55 56 54 50 47 45 45 43 42 42 41 38 37 34 32 33 36 36 35 34 34 34 32 32 33 36 39 37 36 35 36 35 35 35 33 31 31 30 29
58 58 57 57 56 56 54 51 48 47 46 45 44 42 42 41 39 36 34 33 32 33 36 36 35 35 35 34 34 36 40 38 37 37 36 36 35 34 33 32 30 29 28
56 57 57 56 55 54 53 51 49 47 47 45 45 45 43 43 38 36 35 33 30 30 29 32 33 35 36 35 34 38 40 39 38 38 37 36 34 33 32 30 29 28 25
56 57 56 54 54 53 52 49 49 48 46 46 46 45 45 41 38 36 33 34 29 29 30 28 31 33 32 33 33 37 40 41 39 38 38 36 34 32 31 28 28 26 24
56 56 56 54 53 53 51 48 47 47 47 46 44 44 39 40 39 37 37 35 32 34 34 31 29 30 30 30 31 37 40 40 40 38 37 37 36 32 30 29 28 24 22
55 54 54 53 52 51 50 47 46 47 46 45 43 40 41 42 43 43 42 42 40 37 32 30 29 29 29 28 28 35 38 38 40 38 36 35 36 34 32 31 27 24 22
55 54 53 52 51 50 48 46 45 46 44 42 41 41 42 43 42 42 42 41 39 37 36 36 31 30 28 27 27 31 35 35 35 38 36 36 35 34 33 34 30 27 24
54 54 52 51 50 48 47 46 45 44 42 41 42 42 42 43 42 41 40 39 38 36 34 33 32 30 30 30 29 28 29 31 31 31 37 36 35 33 34 31 30 30 28
54 52 51 49 48 47 46 45 45 43 42 42 42 42 42 41 39 39 37 37 36 36 36 34 34 33 32 32 31 30 29 29 28 28 30 35 35 34 31 29 29 30 29
53 51 50 49 48 47 46 44 42 42 42 42 42 42 41 40 40 39 38 37 37 36 35 35 34 34 33 33 31 31 31 29 28 27 27 29 31 31 32 31 29 29 31
52 50 49 48 46 44 43 41 41 41 41 41 41 40 41 40 39 37 37 37 36 35 34 34 33 32 31 31 30 30 29 30 30 28 28 27 27 27 26 28 28 30 31
49 48 46 44 42 41 41 41 40 40 40 39 38 40 39 39 38 37 32 31 31 30 29 29 29 29 29 30 30 31 31 30 29 30 25 24 21 20 20 22 23 24 21
45 43 42 41 40 40 40 40 39 39 38 38 38 38 38 35 33 30 29 27 27 27 29 28 26 25 27 26 29 29 29 31 30 31 26 27 25 24 24 23 25 23 24
43 41 40 40 40 40 39 38 38 37 37 38 37 34 31 28 30 27 25 22 20 18 16 16 17 20 21 22 23 24 26 25 26 29 31 28 29 27 27 22 22 25 26
38 38 38 37 38 38 38 37 37 37 34 31 28 27 26 26 26 25 22 19 19 21 22 24 25 26 27 28 28 27 25 24 23 23 29 29 28 27 26 25 20 24 24
36 36 36 36 36 36 37 37 36 32 28 25 23 23 23 24 23 20 20 21 22 23 23 22 23 26 27 27 27 27 27 26 25 25 27 27 26 25 24 24 20 20 19

GFSMA_sfc_30mbdewp_051.txt.gz
Dewpoint
54 55 54 53 51 49 48 48 45 42 39 36 40 47 49 52 53 55 56 57 56 54 53 55 54 52 50 50 48 45 45 43 42 42 41 42 43 42 41 40 40 39 39
53 53 52 51 50 48 49 48 44 41 36 34 35 39 44 46 46 49 51 53 55 56 54 54 54 54 51 49 49 45 44 43 41 40 40 42 41 39 38 38 38 38 38
52 52 50 50 50 48 50 48 45 44 37 34 33 37 40 40 40 41 44 47 50 52 54 55 54 54 53 49 47 46 43 42 40 39 41 40 38 37 37 37 37 37 37
54 52 51 51 52 51 50 49 46 44 39 33 33 33 36 37 40 41 42 46 47 49 51 53 56 54 54 50 48 47 44 41 39 39 40 38 36 36 36 37 36 36 35
55 54 53 53 53 52 51 49 47 44 40 35 33 33 35 34 33 40 43 45 46 47 51 56 56 55 53 53 49 48 44 41 39 37 38 36 35 36 36 35 34 34 35
57 56 56 55 54 52 52 49 46 44 41 38 34 33 35 35 34 35 42 45 46 46 50 53 54 53 52 52 49 47 44 42 38 37 37 34 35 36 34 33 33 33 33
57 57 56 56 53 52 51 50 46 43 41 39 36 37 38 38 37 34 38 42 42 45 47 49 48 47 48 49 47 44 44 42 37 36 37 34 36 34 33 33 33 33 33
53 56 56 56 54 51 50 49 45 42 40 40 36 39 36 39 39 37 35 37 37 43 45 46 46 45 45 47 47 45 43 40 37 37 36 35 36 34 34 34 33 32 32
53 55 57 56 55 53 51 50 47 43 39 40 41 37 37 35 37 38 37 36 35 37 43 44 44 43 42 42 45 45 44 41 37 38 37 36 37 35 35 35 33 33 33
53 53 55 56 56 55 53 51 50 46 43 38 41 42 39 38 34 33 34 37 37 34 34 37 39 40 40 39 40 41 40 40 39 37 37 37 38 37 37 36 34 33 33
54 55 56 55 56 55 54 52 51 47 46 43 41 42 41 38 39 37 36 35 36 37 36 35 34 34 34 35 36 38 40 40 39 41 37 37 38 37 37 37 35 34 33
54 56 56 56 56 55 55 53 52 50 47 45 44 43 42 42 40 37 36 36 33 34 36 37 36 35 35 34 34 36 38 40 39 40 40 37 38 38 38 37 35 34 32
53 55 56 56 56 56 56 55 53 50 48 46 44 43 43 42 41 39 38 36 35 33 30 31 33 36 37 37 36 37 38 40 41 40 40 39 39 38 38 37 35 34 31
53 54 56 57 57 56 57 56 54 52 50 47 45 45 44 44 42 37 34 34 32 31 30 29 32 32 32 33 34 37 38 39 41 41 40 40 40 40 38 36 35 33 31
53 55 57 56 57 56 55 53 52 50 48 47 47 46 45 44 40 37 36 34 33 32 34 36 33 31 31 31 30 32 35 37 40 41 40 40 40 40 39 38 35 32 31
55 55 56 55 55 54 53 51 49 48 47 47 46 45 42 41 40 41 42 41 40 39 37 35 32 31 31 31 31 31 33 37 40 41 41 40 39 39 39 38 37 34 31
56 56 55 55 54 52 51 49 48 47 47 46 44 43 41 42 42 43 42 41 40 39 37 37 36 33 31 30 30 30 31 33 36 38 41 40 39 38 37 37 36 35 34
56 56 56 55 54 52 51 49 47 46 46 44 43 42 42 43 42 42 41 39 38 37 35 34 34 33 32 32 32 31 32 31 32 33 36 40 39 38 36 36 36 35 35
57 57 55 54 52 51 50 48 47 46 45 44 43 42 42 42 41 40 38 37 37 36 36 35 34 35 34 33 33 33 32 32 32 32 32 34 36 38 38 36 35 34 34
57 54 53 53 52 50 48 47 47 45 43 43 43 43 43 42 40 39 38 38 36 35 36 35 34 33 33 33 32 31 30 31 31 31 30 30 30 31 35 37 36 35 34
56 54 52 52 49 48 47 46 44 43 42 42 42 42 41 40 40 39 37 36 35 33 32 31 29 29 28 29 28 29 29 28 30 31 31 30 30 30 30 32 35 35 34
53 52 51 50 48 47 44 43 43 42 42 42 41 40 40 41 39 35 33 31 30 28 26 26 25 21 22 24 27 24 25 24 22 24 28 27 29 28 28 28 30 32 33
50 48 47 47 45 43 42 41 41 41 40 40 40 39 38 35 32 30 28 26 24 23 25 21 18 20 20 20 22 22 23 23 23 24 24 23 24 26 27 24 27 30 30
47 45 44 43 43 41 41 40 39 39 38 38 38 37 31 30 27 26 23 20 19 18 19 20 21 22 22 23 24 26 26 25 25 25 25 23 24 25 28 27 28 29 32
43 43 42 42 41 39 39 38 38 37 34 31 29 27 28 26 26 24 19 16 19 22 23 23 20 21 22 24 27 27 23 23 21 22 24 24 24 25 27 27 28 30 32
40 39 38 39 39 38 38 37 36 33 29 25 24 23 24 23 21 20 21 22 22 23 19 20 20 19 20 22 20 22 23 21 21 21 22 24 24 26 25 26 26 28 30

GFSMA_sfc_30mbdewp_057.txt.gz
Dewpoint
54 53 52 49 47 49 50 51 52 52 52 52 52 52 53 53 54 53 52 55 55 55 54 54 53 51 50 50 49 48 46 45 45 44 45 43 42 41 40 40 40 40 39
55 52 50 49 49 46 45 48 50 50 50 51 52 52 52 53 54 54 53 54 55 55 56 55 54 53 52 50 50 48 45 44 44 43 45 43 41 40 39 40 39 38 38
55 53 49 49 49 48 46 44 46 47 47 47 49 50 51 52 52 54 54 53 54 55 56 56 55 55 54 52 49 48 46 43 43 42 45 42 40 39 38 38 37 36 37
55 54 50 49 50 48 45 42 39 38 38 40 42 43 45 45 47 48 50 51 52 52 54 56 56 56 54 53 51 49 46 45 43 42 45 42 40 39 38 36 35 35 35
54 52 51 52 52 50 48 45 42 39 38 37 38 40 41 41 42 40 42 45 48 50 50 54 56 56 56 53 51 50 49 46 44 42 43 42 39 38 38 35 34 34 34
53 54 53 52 51 51 50 47 46 45 40 37 32 36 39 39 39 40 41 43 43 45 46 49 53 54 56 55 53 51 49 49 47 44 42 42 40 39 38 35 33 33 33
53 54 54 54 52 51 52 50 48 46 43 41 37 37 37 39 39 37 38 41 44 45 46 47 48 50 53 56 55 52 49 46 46 47 44 42 42 39 39 36 34 34 34
53 54 54 55 54 53 54 52 49 47 45 42 39 39 39 39 38 39 38 39 43 45 46 46 48 50 49 48 50 54 49 46 44 44 46 43 42 41 40 39 37 36 35
56 55 56 57 56 55 54 54 52 49 46 44 43 43 40 41 40 41 41 39 39 42 44 45 46 49 50 48 49 50 52 49 45 42 42 42 41 42 41 41 39 38 37
55 57 56 56 57 56 55 55 53 51 50 47 44 44 45 42 40 39 38 41 40 40 41 41 42 44 47 46 47 47 47 47 48 48 43 40 40 42 43 41 41 40 40
53 52 53 54 54 57 56 55 53 52 51 50 46 46 44 41 43 42 42 39 38 39 39 40 40 43 44 45 45 45 44 44 44 45 47 45 41 39 40 43 43 43 42
51 52 51 52 53 56 56 56 56 54 52 51 49 47 44 43 42 40 41 41 39 40 40 41 40 40 40 40 40 40 40 41 40 41 43 43 43 43 40 39 40 43 43
49 51 53 53 53 54 54 55 56 55 55 54 52 50 47 47 47 44 41 41 41 41 37 36 39 40 39 39 38 38 39 39 40 40 41 42 42 41 41 41 40 38 38
48 49 52 53 53 53 54 55 55 56 56 55 54 52 52 52 52 46 44 42 39 39 37 35 35 36 37 36 37 37 38 36 36 37 39 41 42 42 43 43 43 43 41
51 51 51 51 52 52 53 53 54 55 56 55 55 54 53 53 51 47 45 44 43 41 36 35 35 36 37 36 35 37 38 37 34 35 37 38 39 41 41 42 42 43 43
51 51 51 51 51 52 53 54 55 56 56 55 55 54 53 52 48 47 43 44 44 44 43 39 36 36 35 35 37 37 37 35 36 35 36 37 37 38 39 40 41 41 41
51 51 51 51 51 53 55 55 55 55 55 54 55 54 54 52 48 45 44 42 40 41 41 39 38 37 38 37 36 37 37 37 36 35 35 35 36 37 37 38 39 39 39
52 52 52 52 52 54 54 55 55 55 55 53 53 52 52 49 47 45 42 41 41 40 39 39 38 35 35 36 36 37 35 32 33 31 34 35 35 35 35 36 37 37 37
52 53 54 54 54 54 54 54 54 54 54 53 52 51 50 47 45 44 42 42 41 39 38 36 35 36 35 35 34 32 31 29 26 24 21 22 26 30 30 31 32 34 34
51 52 53 54 54 55 55 54 54 54 53 52 51 51 49 46 45 44 42 41 39 38 36 36 35 35 34 33 30 27 21 18 17 17 18 22 25 26 29 31 31 30 29
52 52 53 54 54 55 55 55 54 53 52 50 50 48 47 45 44 43 41 40 38 37 35 35 32 31 30 27 23 18 16 15 16 17 20 21 19 19 21 22 22 24 26
52 53 54 53 55 55 55 53 54 52 52 50 46 45 44 44 42 41 40 38 38 35 32 30 29 29 26 20 17 17 16 15 10 18 19 16 18 19 20 20 21 25 28
53 53 54 55 55 55 53 51 51 51 49 47 44 42 41 40 37 36 34 33 30 28 28 28 28 20 17 17 20 18 16 17 17 18 18 15 15 16 15 16 21 25 28
53 54 54 54 55 53 50 48 46 46 44 43 42 41 37 35 33 31 27 23 22 21 19 18 18 20 21 20 20 19 20 19 17 15 14 13 11 13 17 19 22 24 28
52 51 50 49 48 45 44 43 43 41 38 37 36 36 34 31 31 29 27 25 24 24 24 22 20 19 19 19 19 18 15 12 13 7 9 13 13 14 17 19 23 28 28
45 44 42 42 42 40 39 40 38 35 33 31 30 31 31 30 30 29 27 25 22 21 18 16 14 15 17 17 19 15 12 12 12 12 17 15 12 16 17 15 21 22 25

GFSMA_sfc_30mbdewp_060.txt.gz
Dewpoint
55 52 53 55 54 53 54 52 52 53 50 48 48 48 49 49 50 49 51 55 56 56 53 53 51 50 50 50 49 48 47 46 45 46 45 43 42 41 41 41 41 40 39
53 50 51 49 49 52 52 50 50 49 48 47 47 47 48 49 50 50 49 53 55 56 56 54 53 52 51 51 50 48 47 46 45 46 44 42 41 40 40 39 39 38 38
53 51 48 48 47 47 48 47 48 47 46 45 46 47 47 49 49 50 50 50 53 56 56 56 55 54 53 52 51 48 46 45 45 44 45 42 40 40 39 38 37 36 37
53 51 49 47 47 46 46 46 46 46 44 43 44 44 45 46 48 49 49 49 49 49 55 57 56 56 55 52 51 49 48 45 45 44 46 43 41 39 38 36 35 35 35
52 50 49 50 49 46 45 44 43 41 40 39 40 40 42 42 44 44 45 48 48 48 48 55 57 57 56 55 53 51 49 47 45 44 45 44 41 40 39 36 35 34 34
52 51 48 51 50 47 47 45 44 43 40 38 34 38 40 40 41 41 41 42 43 46 46 47 52 52 56 55 54 52 51 51 48 46 45 45 43 41 40 39 36 34 34
53 52 50 51 51 49 48 49 49 46 43 41 36 38 38 40 41 39 40 40 41 43 43 43 45 46 52 56 56 53 51 50 51 49 46 45 45 43 41 41 38 36 35
52 54 53 51 50 50 52 51 50 48 45 43 42 42 41 40 39 40 38 39 41 41 42 45 44 44 46 49 53 55 53 50 47 48 49 48 45 44 43 42 41 39 38
55 53 55 52 52 52 53 53 52 51 49 48 46 46 44 42 44 43 41 40 40 43 42 43 47 45 45 46 47 51 55 54 50 46 44 46 47 46 44 44 43 42 41
55 53 54 53 55 54 53 54 55 54 52 50 49 47 48 48 44 45 42 43 42 42 43 43 41 42 44 45 46 46 49 52 51 51 47 42 41 42 44 45 45 43 43
56 55 55 56 57 57 57 56 56 56 54 52 50 49 47 47 46 46 45 46 44 43 41 42 41 42 43 45 43 45 46 46 47 47 48 47 46 45 42 43 44 46 46
55 56 54 56 56 55 53 54 55 56 55 54 52 51 49 48 47 45 45 48 49 44 43 42 43 44 42 42 45 44 44 43 43 43 44 43 42 42 42 43 44 42 42
53 53 54 55 53 52 52 52 53 54 55 55 54 52 52 50 50 48 47 47 48 48 47 44 44 44 42 43 42 41 41 40 39 40 40 42 43 43 42 42 42 42 42
50 52 53 52 50 50 51 52 53 52 53 54 54 55 53 53 52 51 50 48 46 47 46 44 42 42 42 41 41 39 39 39 37 37 38 39 40 41 41 41 41 41 40
51 51 52 53 52 51 52 52 52 52 53 54 54 54 54 55 55 54 53 51 48 45 45 44 42 40 40 40 39 38 39 37 38 35 35 36 38 40 40 40 41 41 41
51 50 50 51 51 51 51 51 53 52 52 53 54 53 54 54 56 55 53 51 50 49 45 46 42 40 40 37 36 38 41 38 36 36 36 36 37 37 38 38 38 38 38
51 51 51 51 50 50 50 50 50 50 50 51 54 55 54 55 54 54 52 51 49 47 45 46 40 41 37 39 39 38 40 39 39 37 36 35 35 35 35 35 36 36 35
53 52 52 52 51 51 51 51 51 50 51 51 53 55 55 55 55 54 51 48 48 46 45 44 39 40 40 39 38 39 38 36 35 35 32 33 33 32 32 33 35 35 32
53 52 52 52 52 52 52 51 51 52 53 54 55 55 54 54 52 51 49 49 47 44 44 41 41 38 38 38 37 37 36 36 32 28 24 21 21 25 30 30 30 32 33
51 51 51 51 52 52 51 51 51 54 54 55 54 53 54 53 52 50 49 48 45 42 42 39 38 38 37 37 36 34 32 31 24 16 14 16 20 21 24 27 30 29 28
51 51 51 52 52 53 52 53 53 54 54 53 54 54 54 53 52 51 47 46 44 41 39 38 36 36 34 33 32 31 27 22 17 17 16 19 18 17 18 22 22 25 27
50 50 50 51 51 52 52 52 53 54 54 53 53 52 53 51 49 47 46 44 42 40 38 36 34 33 32 31 31 25 21 15 11 12 20 16 17 15 16 18 18 21 23
51 50 51 51 52 53 53 52 51 54 54 54 53 52 47 46 45 42 39 36 35 37 37 34 32 31 30 26 23 21 17 15 15 15 17 15 15 15 15 11 17 22 24
51 52 52 52 53 54 53 52 52 53 54 53 50 47 44 40 40 37 34 31 30 30 29 27 27 24 23 21 20 18 18 18 17 16 15 12 11 12 15 15 18 21 24
52 53 53 53 54 55 52 52 49 46 44 41 41 40 38 35 34 33 29 28 26 27 28 25 22 21 19 18 18 15 16 13 16 11 8 9 14 14 12 15 20 24 27
53 49 45 44 44 45 43 44 45 40 36 34 33 34 33 32 32 32 31 29 26 25 20 18 16 16 15 18 19 15 11 11 12 12 15 15 14 10 13 14 16 19 22